Findlay, OH

2:31 PM EDT on April 22, 2018 (GMT -0400)
Findlay

Weather History for KFDY - January, 2014

Change the Weather History Date:

Thursday, January 9, 2014

  Actual Average Record
Temperature  
Mean Temperature 16 °F -  
Max Temperature 30 °F 28 °F 59 °F (1949)
Min Temperature 3 °F 15 °F -10 °F (1981)
Degree Days  
Heating Degree Days 48    
Moisture  
Dew Point 15 °F    
Average Humidity 86    
Maximum Humidity 93    
Minimum Humidity 74    
Precipitation  
Precipitation 0.00 in - - ()
Sea Level Pressure  
Sea Level Pressure 30.44 in    
Wind  
Wind Speed 3 mph (ESE)    
Max Wind Speed 10 mph    
Max Gust Speed -    
Visibility 4 miles    
Events Fog , Snow    
Averages and records for this station are not official NWS values.
T = Trace of Precipitation, MM = Missing Value Source: NWS Daily Summary

Daily Weather History Graph

Daily Weather History Graph

Search for Another Location

Airport or City:

Astronomy

Jan. 09, 2014 Rise Set
Actual Time 7:59 AM EST 5:24 PM EST
Civil Twilight 7:28 AM EST 5:55 PM EST
Nautical Twilight 6:54 AM EST 6:29 PM EST
Astronomical Twilight 6:21 AM EST 7:02 PM EST
Moon 12:52 PM EST (1/9) 2:04 AM EST (1/9)
Length of Visible Light 10h 26m
Length of Day
9h 25m
Waxing Gibbous, 66% of the Moon is Illuminated
Jan 9
Waxing Gibbous
Jan 15
Full
Jan 24
Last Quarter
Jan 30
New
Feb 6
First Quarter

Hourly Weather History & Observations

Time (EST) Temp. Windchill Dew Point Humidity Pressure Visibility Wind Dir Wind Speed Gust Speed Precip Events Conditions
12:53 AM 12.0 °F - 8.1 °F 84% 30.53 in 8.0 mi Calm Calm - N/A   Mostly Cloudy
1:53 AM 10.9 °F - 6.1 °F 81% 30.53 in 6.0 mi Calm Calm - N/A   Haze
2:53 AM 10.0 °F - 5.0 °F 80% 30.54 in 4.0 mi Calm Calm - N/A   Haze
3:09 AM 8.6 °F - 6.8 °F 92% 30.51 in 1.5 mi Calm Calm - N/A   Clear
3:15 AM 5.0 °F - 3.2 °F 92% 30.51 in 0.2 mi Calm Calm - N/A Fog Light Freezing Fog
3:36 AM 5.0 °F - 3.2 °F 92% 30.51 in 1.0 mi Calm Calm - N/A   Clear
3:41 AM 6.8 °F -0.1 °F 3.2 °F 85% 30.51 in 3.0 mi North 3.5 mph - N/A   Clear
3:53 AM 9.0 °F - 5.0 °F 84% 30.55 in 6.0 mi Calm Calm - N/A   Clear
4:53 AM 5.0 °F - 1.9 °F 87% 30.56 in 5.0 mi Calm Calm - N/A   Clear
5:53 AM 3.9 °F -3.4 °F 1.0 °F 88% 30.56 in 5.0 mi ENE 3.5 mph - N/A   Mist
6:53 AM 6.1 °F -0.9 °F 3.0 °F 87% 30.56 in 5.0 mi East 3.5 mph - N/A   Clear
7:53 AM 3.0 °F -6.4 °F -2.0 °F 80% 30.57 in 5.0 mi ESE 4.6 mph - N/A   Haze
8:53 AM 6.1 °F -4.3 °F 3.0 °F 87% 30.57 in 4.0 mi East 5.8 mph - N/A   Clear
9:53 AM 10.9 °F 0.2 °F 7.0 °F 84% 30.56 in 4.0 mi East 6.9 mph - N/A   Clear
10:53 AM 12.0 °F 2.7 °F 8.1 °F 84% 30.56 in 6.0 mi East 5.8 mph - N/A   Scattered Clouds
11:53 AM 17.1 °F 8.7 °F 10.9 °F 77% 30.51 in 6.0 mi East 5.8 mph - N/A   Haze
12:53 PM 19.9 °F 12.1 °F 14.0 °F 78% 30.46 in 6.0 mi ESE 5.8 mph - N/A   Haze
1:53 PM 23.0 °F 13.9 °F 16.0 °F 74% 30.42 in 7.0 mi ESE 8.1 mph - N/A   Clear
2:53 PM 24.1 °F 18.2 °F 18.0 °F 77% 30.43 in 6.0 mi ESE 4.6 mph - N/A   Haze
3:37 PM 24.8 °F 17.9 °F 19.4 °F 80% 30.39 in 2.0 mi East 5.8 mph - 0.00 in Snow Light Snow
3:53 PM 25.0 °F 16.3 °F 19.0 °F 78% 30.42 in 3.0 mi East 8.1 mph - 0.00 in Snow Light Snow
4:01 PM 24.8 °F 16.9 °F 19.4 °F 80% 30.38 in 1.8 mi East 6.9 mph - 0.00 in Snow Light Snow
4:16 PM 24.8 °F 16.9 °F 19.4 °F 80% 30.38 in 1.5 mi East 6.9 mph - 0.00 in Snow Light Snow
4:53 PM 25.0 °F 18.1 °F 21.9 °F 88% 30.41 in 1.2 mi East 5.8 mph - 0.00 in Snow Light Snow
5:21 PM 24.8 °F 17.9 °F 21.2 °F 86% 30.37 in 1.5 mi East 5.8 mph - 0.00 in Snow Light Snow
6:21 PM 26.6 °F 21.2 °F 23.0 °F 86% 30.37 in 1.8 mi ESE 4.6 mph - 0.00 in Snow Light Snow
6:32 PM 26.6 °F 21.2 °F 23.0 °F 86% 30.36 in 2.0 mi ESE 4.6 mph - 0.00 in Snow Light Snow
6:44 PM 26.6 °F 20.0 °F 23.0 °F 86% 30.35 in 4.0 mi East 5.8 mph - 0.00 in Snow Light Snow
6:53 PM 27.0 °F 21.6 °F 24.1 °F 89% 30.38 in 4.0 mi East 4.6 mph - 0.00 in   Overcast
7:53 PM 28.0 °F 20.8 °F 25.0 °F 88% 30.37 in 6.0 mi ESE 6.9 mph - N/A   Overcast
8:26 PM 28.4 °F 20.4 °F 24.8 °F 86% 30.34 in 1.8 mi SSE 8.1 mph - 0.00 in Snow Light Snow
8:49 PM 28.4 °F 19.7 °F 26.6 °F 93% 30.34 in 2.0 mi SSE 9.2 mph - 0.00 in Snow Light Snow
8:53 PM 28.0 °F 19.3 °F 26.1 °F 92% 30.37 in 2.0 mi SSE 9.2 mph - 0.00 in Snow Light Snow
9:17 PM 28.4 °F 20.4 °F 26.6 °F 93% 30.33 in 4.0 mi SSE 8.1 mph - 0.00 in   Overcast
9:53 PM 28.9 °F 21.1 °F 27.0 °F 92% 30.34 in 3.0 mi SSE 8.1 mph - 0.00 in Snow Light Snow
10:53 PM 30.0 °F 21.7 °F 27.0 °F 88% 30.32 in 4.0 mi SSE 9.2 mph - 0.00 in Snow Light Snow
11:02 PM 30.2 °F 21.3 °F 28.4 °F 93% 30.28 in 2.5 mi SSE 10.4 mph - 0.00 in Snow Light Snow
11:09 PM 30.2 °F 22.6 °F 28.4 °F 93% 30.28 in 4.0 mi SSE 8.1 mph - 0.00 in   Overcast
11:53 PM 30.0 °F 21.7 °F 28.0 °F 92% 30.28 in 5.0 mi SSE 9.2 mph - 0.00 in   Overcast